Wilton, CA (95693)

9:56 PM PDT on August 23, 2016 (GMT -0700)
La Clair Rd | | Change Station

Elev 125 ft 38.40 °N, 121.23 °W | Updated 10 seconds ago

Clear
Clear
67.3 °F
Feels Like 67.3 °F
N
1.1
Wind Variable Wind from South
Gusts 2.5 mph

Today
High -- | Low -- °F
--% Chance of Precip.
Yesterday
High -- | Low -- °F
Precip. -- in
Pressure 30.01 in
Visibility 10.0 miles
Clouds Clear
Dew Point 58 °F
Humidity 72%
Rainfall 0.00 in
Snow Depth Not available.
6:26 AM 7:47 PM
Waning Gibbous, 61% visible
METAR KMHR 240451Z 18006KT 10SM SKC 19/12 A3001
Pressure 30.01 in
Visibility 10.0 miles
Clouds Clear
Dew Point 58 °F
Humidity 72%
Rainfall 0.00 in
Snow Depth Not available.
6:26 AM 7:47 PM
Waning Gibbous, 61% visible
METAR KMHR 240451Z 18006KT 10SM SKC 19/12 A3001

10-Day Weather Forecast

Almanac

Astronomy

Aug. 23, 2016 Rise Set
Actual Time
Civil Twilight
Nautical Twilight
Astronomical Twilight
Moon
Length of Visible Light
Length of Day
Tomorrow will be .
, % of the Moon is Illuminated

Today's Extremes

State Highs State Lows

Community

WunderPhotos

Upload Photos

1,934,554 photos uploaded!

WunderBlog® & News

Nearby

Air Quality

  Air Quality AQ Index Pollutant
Not available.

Snow Depth

Station Depth Elevation

Earthquake Activity

City Distance Mag. Time & Date
Minimum magnitude displayed is 2.5.

Coastal Water Temperatures

Place Temperature

Stations

Nearby Weather Stations

Station Location Temp. Windchill Dew Point Humidity Wind Precip. Elev Updated Type
                   

Watches & Warnings

There are currently no watches in effect.